TimeCST,TemperatureF,Dew PointF,Humidity,Sea Level PressureIn,VisibilityMPH,Wind Direction,Wind SpeedMPH,Gust SpeedMPH,PrecipitationIn,Events,Conditions,WindDirDegrees,DateUTC
12:15 AM,32.0,30.2,93,30.39,10.0,Calm,Calm,-,N/A,,Unknown,0,2013-11-07 06:15:00
12:35 AM,32.0,32.0,100,30.39,8.0,Calm,Calm,-,N/A,,Unknown,0,2013-11-07 06:35:00
12:55 AM,32.0,32.0,100,30.39,9.0,Calm,Calm,-,N/A,,Unknown,0,2013-11-07 06:55:00
1:15 AM,32.0,32.0,100,30.39,1.8,Calm,Calm,-,N/A,,Mist,0,2013-11-07 07:15:00
1:35 AM,32.0,28.4,87,30.39,1.0,Calm,Calm,-,N/A,,Mist,0,2013-11-07 07:35:00
1:55 AM,32.0,28.4,87,30.40,0.2,Calm,Calm,-,N/A,Fog,Light Freezing Fog,0,2013-11-07 07:55:00
2:15 AM,32.0,28.4,87,30.40,1.5,Calm,Calm,-,N/A,,Mist,0,2013-11-07 08:15:00
2:35 AM,32.0,28.4,87,30.40,5.0,Calm,Calm,-,N/A,,Mist,0,2013-11-07 08:35:00
2:55 AM,32.0,30.2,93,30.40,10.0,Calm,Calm,-,N/A,,Unknown,0,2013-11-07 08:55:00
3:15 AM,30.2,28.4,93,30.41,1.0,Calm,Calm,-,N/A,,Mist,0,2013-11-07 09:15:00
3:35 AM,30.2,28.4,93,30.42,0.5,Calm,Calm,-,N/A,Fog,Light Freezing Fog,0,2013-11-07 09:35:00
3:55 AM,30.2,28.4,93,30.42,0.5,Calm,Calm,-,N/A,Fog,Light Freezing Fog,0,2013-11-07 09:55:00
4:15 AM,30.2,28.4,93,30.42,3.0,Calm,Calm,-,N/A,,Mist,0,2013-11-07 10:15:00
4:35 AM,30.2,28.4,93,30.42,3.0,Calm,Calm,-,N/A,,Mist,0,2013-11-07 10:35:00
4:55 AM,32.0,30.2,93,30.42,0.8,South,3.5,-,N/A,,Mist,190,2013-11-07 10:55:00
5:15 AM,28.4,28.4,100,30.43,3.0,Calm,Calm,-,N/A,,Mist,0,2013-11-07 11:15:00
5:35 AM,28.4,28.4,100,30.43,5.0,Calm,Calm,-,N/A,,Mist,0,2013-11-07 11:35:00
5:55 AM,28.4,26.6,93,30.44,0.5,Calm,Calm,-,N/A,Fog,Light Freezing Fog,0,2013-11-07 11:55:00
6:15 AM,28.4,26.6,93,30.45,0.2,Calm,Calm,-,N/A,Fog,Light Freezing Fog,0,2013-11-07 12:15:00
6:35 AM,28.4,26.6,93,30.46,0.2,Calm,Calm,-,N/A,Fog,Light Freezing Fog,0,2013-11-07 12:35:00
6:55 AM,28.4,28.4,100,30.46,0.2,Calm,Calm,-,N/A,Fog,Light Freezing Fog,0,2013-11-07 12:55:00
7:15 AM,30.2,28.4,93,30.46,0.8,Calm,Calm,-,N/A,,Mist,0,2013-11-07 13:15:00
7:35 AM,32.0,32.0,100,30.47,5.0,Calm,Calm,-,N/A,,Mist,0,2013-11-07 13:35:00
7:55 AM,32.0,32.0,100,30.47,1.8,Calm,Calm,-,N/A,,Mist,0,2013-11-07 13:55:00
8:15 AM,35.6,33.8,93,30.48,0.2,Calm,Calm,-,N/A,Fog,Fog,0,2013-11-07 14:15:00
8:35 AM,37.4,35.6,93,30.48,0.2,Calm,Calm,-,N/A,Fog,Fog,0,2013-11-07 14:35:00
8:55 AM,39.2,39.2,100,30.49,1.2,Calm,Calm,-,N/A,,Mist,0,2013-11-07 14:55:00
9:15 AM,41.0,41.0,100,30.48,8.0,Calm,Calm,-,N/A,,Unknown,0,2013-11-07 15:15:00
9:35 AM,42.8,41.0,93,30.48,10.0,Calm,Calm,-,N/A,,Unknown,0,2013-11-07 15:35:00
9:55 AM,44.6,41.0,87,30.49,8.0,SSE,3.5,-,N/A,,Unknown,150,2013-11-07 15:55:00
10:15 AM,48.2,37.4,66,30.49,10.0,Calm,Calm,-,N/A,,Unknown,0,2013-11-07 16:15:00
10:35 AM,50.0,37.4,62,30.49,10.0,Calm,Calm,-,N/A,,Unknown,0,2013-11-07 16:35:00
10:55 AM,51.8,37.4,58,30.48,10.0,Calm,Calm,-,N/A,,Unknown,0,2013-11-07 16:55:00
11:15 AM,53.6,35.6,51,30.48,10.0,North,4.6,-,N/A,,Unknown,10,2013-11-07 17:15:00
11:35 AM,55.4,35.6,47,30.47,10.0,Calm,Calm,-,N/A,,Unknown,0,2013-11-07 17:35:00
11:55 AM,55.4,32.0,41,30.46,10.0,North,3.5,-,N/A,,Unknown,360,2013-11-07 17:55:00
12:15 PM,57.2,32.0,38,30.45,9.0,NW,4.6,-,N/A,,Unknown,320,2013-11-07 18:15:00
12:35 PM,57.2,32.0,38,30.44,10.0,North,4.6,-,N/A,,Unknown,360,2013-11-07 18:35:00
12:55 PM,59.0,32.0,36,30.43,10.0,NNW,4.6,-,N/A,,Unknown,340,2013-11-07 18:55:00
1:15 PM,59.0,32.0,36,30.41,10.0,WNW,6.9,-,N/A,,Unknown,290,2013-11-07 19:15:00
1:35 PM,60.8,32.0,34,30.41,10.0,WNW,5.8,-,N/A,,Unknown,300,2013-11-07 19:35:00
1:55 PM,60.8,32.0,34,30.40,10.0,Calm,Calm,-,N/A,,Unknown,0,2013-11-07 19:55:00
2:15 PM,62.6,32.0,32,30.39,10.0,WSW,5.8,-,N/A,,Unknown,240,2013-11-07 20:15:00
2:35 PM,62.6,32.0,32,30.39,10.0,West,5.8,-,N/A,,Unknown,260,2013-11-07 20:35:00
2:55 PM,62.6,32.0,32,30.38,10.0,West,6.9,-,N/A,,Unknown,260,2013-11-07 20:55:00
3:15 PM,62.6,32.0,32,30.38,10.0,West,4.6,-,N/A,,Unknown,280,2013-11-07 21:15:00
3:35 PM,62.6,28.4,27,30.38,10.0,NW,4.6,-,N/A,,Unknown,320,2013-11-07 21:35:00
3:55 PM,62.6,32.0,32,30.38,10.0,West,4.6,-,N/A,,Unknown,280,2013-11-07 21:55:00
4:35 PM,59.0,32.0,36,30.39,10.0,WNW,3.5,-,N/A,,Unknown,300,2013-11-07 22:35:00
4:55 PM,57.2,33.8,41,30.38,10.0,West,3.5,-,N/A,,Unknown,260,2013-11-07 22:55:00
5:15 PM,55.4,35.6,47,30.39,10.0,Calm,Calm,-,N/A,,Unknown,0,2013-11-07 23:15:00
5:35 PM,53.6,35.6,51,30.39,10.0,WSW,3.5,-,N/A,,Unknown,240,2013-11-07 23:35:00
5:55 PM,51.8,37.4,58,30.39,10.0,SSW,3.5,-,N/A,,Unknown,210,2013-11-07 23:55:00
6:15 PM,50.0,35.6,58,30.39,10.0,South,3.5,-,N/A,,Unknown,190,2013-11-08 00:15:00
6:35 PM,46.4,39.2,76,30.40,10.0,SSE,3.5,-,N/A,,Unknown,160,2013-11-08 00:35:00
6:55 PM,46.4,39.2,76,30.40,10.0,Calm,Calm,-,N/A,,Unknown,0,2013-11-08 00:55:00
7:15 PM,44.6,37.4,76,30.39,10.0,Calm,Calm,-,N/A,,Unknown,0,2013-11-08 01:15:00
7:35 PM,44.6,37.4,76,30.39,10.0,Calm,Calm,-,N/A,,Unknown,0,2013-11-08 01:35:00
7:55 PM,44.6,37.4,76,30.39,10.0,Calm,Calm,-,N/A,,Unknown,0,2013-11-08 01:55:00
8:15 PM,44.6,37.4,76,30.39,10.0,Calm,Calm,-,N/A,,Unknown,0,2013-11-08 02:15:00
8:35 PM,44.6,37.4,76,30.38,10.0,Calm,Calm,-,N/A,,Unknown,0,2013-11-08 02:35:00
8:55 PM,42.8,39.2,87,30.39,10.0,Calm,Calm,-,N/A,,Unknown,0,2013-11-08 02:55:00
9:15 PM,41.0,37.4,87,30.39,10.0,Calm,Calm,-,N/A,,Unknown,0,2013-11-08 03:15:00
9:35 PM,41.0,37.4,87,30.39,10.0,Calm,Calm,-,N/A,,Unknown,0,2013-11-08 03:35:00
9:55 PM,41.0,37.4,87,30.38,10.0,Calm,Calm,-,N/A,,Unknown,0,2013-11-08 03:55:00
10:15 PM,41.0,37.4,87,30.38,10.0,Calm,Calm,-,N/A,,Unknown,0,2013-11-08 04:15:00
10:35 PM,41.0,35.6,81,30.37,10.0,Calm,Calm,-,N/A,,Unknown,0,2013-11-08 04:35:00
10:55 PM,39.2,37.4,93,30.38,10.0,Calm,Calm,-,N/A,,Unknown,0,2013-11-08 04:55:00
11:15 PM,39.2,35.6,87,30.38,10.0,Calm,Calm,-,N/A,,Unknown,0,2013-11-08 05:15:00
11:35 PM,39.2,35.6,87,30.37,10.0,Calm,Calm,-,N/A,,Unknown,0,2013-11-08 05:35:00
11:55 PM,41.0,37.4,87,30.37,10.0,Calm,Calm,-,N/A,,Unknown,0,2013-11-08 05:55:00